Location: Newark
(12.4436°N, 0.6167°W)
Time: 20:02:06
(UTC+00:00)

deb Explorer IX - Pass Details

Date: 11 December 2019
Orbit: 548 x 1101 km, 38.8° (Epoch: 22 January)

Event Time Altitude Azimuth Distance (km) Brightness Sun altitude
Rises 12:16:56 0° 206° (SSW) 2,757 ? 54.2°
Reaches altitude 10° 12:19:23 10° 193° (SSW) 1,909 ? 54.1°
Maximum altitude 12:23:03 26° 136° (SE) 1,246 ? 53.9°
Drops below altitude 10° 12:27:06 10° 80° (E) 2,132 ? 53.7°
Sets 12:30:00 0° 67° (ENE) 3,154 ? 53.6°
